sat.trackr.live / text

‹ back to catalog

ICEYE-X74

NORAD 68500 · 2026-067CN

PAYLOAD ACTIVE UNKNOWN

§ Identity

Operator
Country
US
Launch date
2026-03-30
Launch site
AFWTR
Launch vehicle
Mass (kg)
RCS (m²)

External: N2YO · Heavens-Above · Gunter

§ Orbital elements

Epoch: 2026-09-20T03:59:43.668960Z

Period
96.50 min
Inclination
97.7724°
Eccentricity
0.0003839
Mean motion
14.92175239 rev/d
Perigee alt
588.5 km
Apogee alt
593.8 km
Semi-major
6,969.3 km
B*
1.6881e-4
RAAN
220.0286°
Arg perigee
72.8128°
Mean anomaly
287.3511°
Rev number
2,588

§ Raw data

ICEYE-X741 68500U 26067CN  26263.16647765  .00001663  00000+0  16881-3 0  99932 68500  97.7724 220.0286 0003839  72.8128 287.3511 14.92175239 25881

JSON: /api/v1/satellites/68500 · /tle

For live sub-satellite position, see the globe view (requires WebGL).

§ Visibility from observer

Set your observer location to see the next 7 days of passes ≥ 10°. The values pass through the URL so the page stays shareable.

No JS? Fill the form by hand. The geolocation button needs JavaScript.